Location: Washington
(38.8950°N, 77.0370°W)
Time: 07:42:09
(UTC-05:00)

Amateur Radio Satellites - All Passes

Search period start: 02 March 2015 07:12
Search period end: 03 March 2015 07:12
Location: Washington, 38.8950°N, 77.0370°W

Satellite Date Start Highest point End Downlink Frequencies (MHz)
Time Altitude Azimuth
Cubesat XI-IV 02 Mar 07:17:43 07:22:41 39° 290° (WNW) 07:27:35 437.490
AIST 1 02 Mar 07:18:51 07:23:12 88° 277° (W) 07:27:37
RS-15 02 Mar 07:19:22 07:30:03 45° 45° (NE) 07:41:19 29.354- 29.394
CUTE-I 02 Mar 07:27:04 07:31:50 32° 291° (WNW) 07:36:30 437.470
PCSat 02 Mar 07:58:34 07:59:59 11° 256° (WSW) 08:01:01 145.827
AAUSAT CUBESAT 2 02 Mar 08:09:09 08:10:20 11° 89° (E) 08:11:47 437.432
COMPASS 1 02 Mar 08:10:25 08:12:31 14° 90° (E) 08:14:50 437.405
BRITE-PL 02 Mar 08:10:41 08:14:50 35° 95° (E) 08:18:46 437.365/2234.400
GONETS M04 02 Mar 08:13:37 08:21:28 37° 71° (ENE) 08:29:29
GOMX 1 02 Mar 08:18:52 08:22:34 27° 94° (E) 08:26:12 467.674
HO-68 02 Mar 08:21:31 08:28:06 39° 97° (E) 08:34:45 435.675
ISS 02 Mar 08:26:12 08:29:03 30° 135° (SE) 08:31:57 145.825
SEEDS 02 Mar 08:35:30 08:39:20 33° 97° (E) 08:43:12 437.485
CANX-2 02 Mar 08:37:34 08:41:41 47° 99° (E) 08:45:48 2200.000
ANTELSAT 02 Mar 08:41:19 08:42:41 12° 65° (ENE) 08:44:17 437.575/2403.000
O/OREOS (USA 219) 02 Mar 08:51:08 08:55:15 35° 105° (ESE) 08:59:28 437.305
CUTE 1.7 + AOD 2 02 Mar 08:56:10 09:00:26 72° 102° (ESE) 09:04:40 437.475
DOVE 4 02 Mar 08:56:12 09:00:21 49° 99° (E) 09:04:23 437.250
UWE-3 02 Mar 08:59:00 09:00:11 11° 89° (E) 09:01:39 435.000/436.395/437.385
SO-50 02 Mar 09:03:54 09:06:11 13° 38° (NE) 09:08:40 436.795
POLYITAN 1 02 Mar 09:08:07 09:09:51 13° 66° (ENE) 09:11:49 437.675
CINEMA 3 02 Mar 09:08:41 09:12:30 34° 97° (E) 09:16:18 145.822/145.860
POPSAT HIP 1 02 Mar 09:08:55 09:10:40 13° 66° (ENE) 09:12:38 437.405
DELFI C3 02 Mar 09:18:33 09:21:59 26° 95° (E) 09:25:29 145.870
Oscar 11 02 Mar 09:30:26 09:34:37 47° 99° (E) 09:38:49 145.826/435.025
NANOSAT C BR1 02 Mar 09:30:42 09:33:56 22° 69° (ENE) 09:37:17 145.865
RS-15 02 Mar 09:31:47 09:42:58 58° 246° (WSW) 09:54:32 29.354- 29.394
CUBEBUG 2 02 Mar 09:33:07 09:36:57 35° 97° (E) 09:40:48 437.445
UNISAT 6 02 Mar 09:36:11 09:40:24 46° 73° (ENE) 09:44:35 437.425
AAUSAT CUBESAT 2 02 Mar 09:42:17 09:46:24 54° 285° (WNW) 09:50:29 437.432
COMPASS 1 02 Mar 09:44:30 09:48:31 44° 287° (WNW) 09:52:31 437.405
BRITE-PL 02 Mar 09:49:50 09:53:09 19° 293° (WNW) 09:56:11 437.365/2234.400
DX 1 02 Mar 09:53:49 09:57:55 39° 98° (E) 10:02:00 434.975-435.025
AISAT 02 Mar 09:55:35 09:58:20 17° 91° (E) 10:01:15 437.250
GOMX 1 02 Mar 09:57:10 10:00:40 23° 291° (WNW) 10:03:56 467.674
TIGRISAT 02 Mar 10:01:19 10:05:45 87° 76° (ENE) 10:10:07 435.000
QB50P1 02 Mar 10:02:23 10:06:31 49° 74° (ENE) 10:10:41 145.935-145.965
ISS 02 Mar 10:02:37 10:05:29 28° 331° (NNW) 10:08:20 145.825
VELOX 1 02 Mar 10:04:58 10:08:14 20° 93° (E) 10:11:37 145.980
QB50P2 02 Mar 10:05:58 10:10:09 55° 75° (ENE) 10:14:22 145.880/145.840
HO-68 02 Mar 10:09:15 10:15:50 40° 294° (WNW) 10:22:20 435.675
GONETS M04 02 Mar 10:10:16 10:18:31 47° 271° (W) 10:26:41
SEEDS 02 Mar 10:11:54 10:14:58 19° 291° (WNW) 10:17:56 437.485
FUNcube-1 02 Mar 10:13:58 10:18:07 73° 101° (ESE) 10:22:16 145.935
ANTELSAT 02 Mar 10:14:40 10:19:05 64° 259° (W) 10:23:24 437.575/2403.000
CANX-2 02 Mar 10:14:54 10:17:16 14° 293° (WNW) 10:19:29 2200.000
ZACube-1 02 Mar 10:15:00 10:19:10 76° 101° (ESE) 10:23:20 437.345
BUGSAT 1 02 Mar 10:15:30 10:19:38 51° 74° (ENE) 10:23:49 437.445
ESTCUBE 1 02 Mar 10:19:12 10:21:34 14° 90° (E) 10:24:08 437.505/2401.250
DUCHIFAT 1 02 Mar 10:21:26 10:25:43 82° 76° (ENE) 10:30:01 145.980
HUMSAT D 02 Mar 10:22:33 10:26:31 45° 99° (E) 10:30:29 437.325/437.525
UKube-1 02 Mar 10:23:54 10:28:16 84° 103° (ESE) 10:32:36 .
50 SAT 02 Mar 10:25:19 10:28:53 33° 97° (E) 10:32:29 437.505
O/OREOS (USA 219) 02 Mar 10:31:14 10:34:49 22° 302° (WNW) 10:38:21 437.305
UWE-3 02 Mar 10:33:07 10:37:09 52° 286° (WNW) 10:41:11 435.000/436.395/437.385
DOVE 4 02 Mar 10:35:37 10:37:44 13° 295° (WNW) 10:39:38 437.250
POLYITAN 1 02 Mar 10:41:08 10:45:23 57° 260° (W) 10:49:36 437.675
POPSAT HIP 1 02 Mar 10:41:55 10:46:09 57° 260° (W) 10:50:23 437.405
SO-50 02 Mar 10:42:38 10:47:37 80° 58° (ENE) 10:52:32 436.795
CINEMA 3 02 Mar 10:46:39 10:49:31 18° 292° (WNW) 10:52:15 145.822/145.860
DANDE 02 Mar 10:53:44 10:56:03 26° 75° (ENE) 10:58:20 436.750
DELFI C3 02 Mar 10:53:52 10:57:07 22° 290° (WNW) 11:00:15 145.870
NANOSAT C BR1 02 Mar 11:05:52 11:09:40 30° 264° (W) 11:13:27 145.865
Oscar 11 02 Mar 11:07:57 11:10:28 15° 293° (WNW) 11:12:47 145.826/435.025
CUBEBUG 2 02 Mar 11:10:39 11:13:27 17° 292° (WNW) 11:16:07 437.445
UNISAT 6 02 Mar 11:14:56 11:17:29 15° 269° (W) 11:19:49 437.425
CUSAT 1 02 Mar 11:26:06 11:28:36 42° 263° (W) 11:31:10 437.405
DX 1 02 Mar 11:30:53 11:33:55 18° 293° (WNW) 11:36:48 434.975-435.025
AISAT 02 Mar 11:31:00 11:35:12 41° 288° (WNW) 11:39:21 437.250
CUBEBUG 1 02 Mar 11:35:57 11:40:24 87° 278° (W) 11:44:47 437.445
QB50P1 02 Mar 11:40:36 11:42:45 13° 270° (W) 11:44:40 145.935-145.965
VELOX 1 02 Mar 11:40:54 11:44:56 34° 289° (WNW) 11:48:53 145.980
ISS 02 Mar 11:42:28 11:42:46 10° 350° (N) 11:43:01 145.825
QB50P2 02 Mar 11:44:51 11:46:30 12° 271° (W) 11:47:52 145.880/145.840
BUGSAT 1 02 Mar 11:53:31 11:55:30 13° 270° (W) 11:57:16 437.445
ESTCUBE 1 02 Mar 11:54:22 11:58:49 50° 287° (WNW) 12:03:12 437.505/2401.250
Oscar 19 02 Mar 11:57:55 12:02:09 27° 68° (ENE) 12:06:29 437.125/150
HUMSAT D 02 Mar 11:59:47 12:01:58 14° 293° (WNW) 12:03:59 437.325/437.525
50 SAT 02 Mar 12:01:02 12:03:41 17° 292° (WNW) 12:06:13 437.505
SPROUT 02 Mar 12:10:01 12:14:14 54° 100° (E) 12:18:26 437.525
TISAT 1 02 Mar 12:15:34 12:19:44 55° 100° (E) 12:23:51 437.305
SO-50 02 Mar 12:25:49 12:27:36 12° 252° (WSW) 12:29:05 436.795
Gurwin Techsat 1B 02 Mar 13:04:17 13:08:46 30° 68° (ENE) 13:13:21 435.225
SWISSCUBE 02 Mar 13:17:45 13:22:19 42° 98° (E) 13:26:53 437.505
ISS 02 Mar 13:19:54 13:20:23 10° 10° (N) 13:20:54 145.825
BEESAT 02 Mar 13:26:24 13:31:03 48° 99° (E) 13:35:41 436.000
ITAMSAT 1 02 Mar 13:33:26 13:38:39 75° 74° (ENE) 13:43:54 435.822/435.867
AO-7 02 Mar 13:35:06 13:40:38 21° 55° (NE) 13:46:30 29.400- 29.500
Oscar 19 02 Mar 13:36:44 13:41:24 34° 264° (W) 13:46:02 437.125/150
KKS-1 02 Mar 13:45:34 13:47:32 13° 90° (E) 13:49:44 437.445
SPROUT 02 Mar 13:47:50 13:49:56 13° 294° (WNW) 13:51:48 437.525
TISAT 1 02 Mar 13:53:17 13:55:08 12° 295° (WNW) 13:56:46 437.305
ITUPSAT 1 02 Mar 13:53:25 13:58:16 90° 114° (ESE) 14:03:06 437.325
JAS-2 02 Mar 14:26:55 14:30:15 17° 60° (ENE) 14:34:01 435.910
HORYU 2 02 Mar 14:43:41 14:48:05 73° 75° (ENE) 14:52:31 437.375
Gurwin Techsat 1B 02 Mar 14:43:54 14:48:41 33° 264° (W) 14:53:26 435.225
ISS 02 Mar 14:54:45 14:57:39 29° 29° (NNE) 15:00:34 145.825
SWISSCUBE 02 Mar 14:56:23 14:59:55 20° 293° (WNW) 15:03:20 437.505
BEESAT 02 Mar 15:05:17 15:08:34 18° 294° (WNW) 15:11:41 436.000
YUBILEINY 02 Mar 15:05:27 15:12:29 30° 85° (E) 15:19:50 435.215
ITAMSAT 1 02 Mar 15:16:43 15:18:50 12° 272° (W) 15:20:36 435.822/435.867
KKS-1 02 Mar 15:20:15 15:24:35 52° 287° (WNW) 15:28:53 437.445
AO-7 02 Mar 15:24:09 15:32:32 89° 253° (WSW) 15:40:56 29.400- 29.500
STARS 02 Mar 15:27:14 15:31:37 69° 285° (WNW) 15:35:57 437.465
VERMONT LUNAR 02 Mar 16:01:27 16:01:46 10° 144° (SE) 16:02:13 437.305
JAS-2 02 Mar 16:09:16 16:14:39 68° 259° (W) 16:20:40 435.910
M-CUBED/EXP-1 PRIME 02 Mar 16:09:28 16:13:16 30° 102° (ESE) 16:17:21 437.505
BEESAT 3 02 Mar 16:09:54 16:12:09 15° 110° (ESE) 16:14:35 437.485
AUBIESAT-1 02 Mar 16:11:43 16:15:27 29° 101° (ESE) 16:19:28 437.475
MOZHAYETS 4 02 Mar 16:29:37 16:33:59 40° 97° (E) 16:38:22
ISS 02 Mar 16:31:12 16:34:03 28° 226° (SW) 16:36:53 145.825
BEESAT 2 02 Mar 16:34:03 16:37:19 24° 113° (ESE) 16:40:42 435.950
Cubesat XI-IV 02 Mar 16:58:47 17:03:39 38° 70° (ENE) 17:08:37 437.490
YUBILEINY 02 Mar 17:00:20 17:08:53 56° 283° (WNW) 17:17:29 435.215
CUTE-I 02 Mar 17:07:37 17:12:39 45° 71° (ENE) 17:17:47 437.470
AO-7 02 Mar 17:21:25 17:26:34 16° 272° (W) 17:31:09 29.400- 29.500
AIST 1 02 Mar 17:28:13 17:31:27 20° 72° (ENE) 17:34:48
VERMONT LUNAR 02 Mar 17:35:50 17:39:11 46° 157° (SSE) 17:42:33 437.305
PHONESAT 2.4 02 Mar 17:38:36 17:41:43 27° 151° (SSE) 17:44:52 2401.200-2431.200
PRISM 02 Mar 17:41:37 17:44:09 16° 92° (E) 17:46:48 437.425
M-CUBED/EXP-1 PRIME 02 Mar 17:44:35 17:48:06 25° 294° (WNW) 17:51:44 437.505
BEESAT 3 02 Mar 17:45:57 17:49:53 46° 305° (NW) 17:53:55 437.485
AUBIESAT-1 02 Mar 17:46:39 17:50:14 26° 294° (WNW) 17:53:58 437.475
AIST 2 02 Mar 18:07:26 18:11:41 87° 300° (WNW) 18:16:01 435.215
MOZHAYETS 4 02 Mar 18:07:36 18:10:58 20° 292° (WNW) 18:14:13
BEESAT 2 02 Mar 18:11:42 18:15:24 30° 309° (NW) 18:19:05 435.950
CUBESAT XI-V 02 Mar 18:27:57 18:32:36 55° 100° (E) 18:37:12 437.345
STRAND 1 02 Mar 18:30:13 18:34:50 33° 96° (E) 18:39:29 437.568
Cubesat XI-IV 02 Mar 18:39:22 18:43:52 26° 266° (W) 18:48:17 437.490
CUTE-I 02 Mar 18:48:50 18:53:00 22° 267° (W) 18:57:01 437.470
HO-68 02 Mar 18:49:41 18:55:16 27° 62° (ENE) 19:01:03 435.675
O/OREOS (USA 219) 02 Mar 19:01:58 19:06:30 56° 66° (ENE) 19:10:59 437.305
AIST 1 02 Mar 19:05:17 19:09:13 31° 269° (W) 19:13:04
PCSat 02 Mar 19:12:18 19:14:31 13° 105° (ESE) 19:17:04 145.827
VERMONT LUNAR 02 Mar 19:13:34 19:17:03 70° 352° (N) 19:20:33 437.305
PRISM 02 Mar 19:15:53 19:19:52 40° 288° (WNW) 19:23:48 437.425
PHONESAT 2.4 02 Mar 19:16:19 19:19:58 90° 151° (SSE) 19:23:37 2401.200-2431.200
BRITE-PL 02 Mar 19:18:54 19:24:11 43° 72° (ENE) 19:29:20 437.365/2234.400
GOMX 1 02 Mar 19:24:50 19:29:34 33° 71° (ENE) 19:34:10 467.674
SEEDS 02 Mar 19:27:15 19:30:21 21° 69° (ENE) 19:33:33 437.485
CANX-2 02 Mar 19:29:46 19:33:23 29° 71° (ENE) 19:37:04 2200.000
CUTE 1.7 + AOD 2 02 Mar 19:47:59 19:51:57 42° 73° (ENE) 19:55:58 437.475
AIST 2 02 Mar 19:49:30 19:51:02 11° 320° (NW) 19:52:23 435.215
DOVE 4 02 Mar 19:59:47 20:04:45 48° 74° (ENE) 20:09:30 437.250
DELFI C3 02 Mar 20:06:40 20:08:54 15° 68° (ENE) 20:11:18 145.870
CUBESAT XI-V 02 Mar 20:06:50 20:09:38 15° 294° (WNW) 20:12:14 437.345
CINEMA 3 02 Mar 20:09:05 20:13:16 31° 71° (ENE) 20:17:22 145.822/145.860
STRAND 1 02 Mar 20:09:35 20:13:57 28° 292° (WNW) 20:18:12 437.568
Oscar 11 02 Mar 20:24:17 20:28:04 32° 71° (ENE) 20:31:55 145.826/435.025
CUBEBUG 2 02 Mar 20:30:24 20:34:14 28° 71° (ENE) 20:38:02 437.445
AAUSAT CUBESAT 2 02 Mar 20:31:49 20:35:58 84° 77° (ENE) 20:40:08 437.432
COMPASS 1 02 Mar 20:34:22 20:38:32 78° 258° (WSW) 20:42:42 437.405
HO-68 02 Mar 20:35:33 20:42:35 59° 258° (WSW) 20:49:38 435.675
O/OREOS (USA 219) 02 Mar 20:43:20 20:45:29 13° 260° (W) 20:47:23 437.305
DX 1 02 Mar 20:48:27 20:52:15 30° 70° (ENE) 20:56:07 434.975-435.025
VERMONT LUNAR 02 Mar 20:51:37 20:55:07 78° 10° (N) 20:58:36 437.305
PCSat 02 Mar 20:51:56 20:57:21 77° 298° (WNW) 21:02:49 145.827
AISAT 02 Mar 20:53:16 20:55:35 14° 65° (ENE) 20:58:07 437.250
PHONESAT 2.4 02 Mar 20:54:55 20:58:33 67° 3° (N) 21:02:10 2401.200-2431.200
BRITE-PL 02 Mar 20:58:10 21:02:49 25° 267° (W) 21:07:14 437.365/2234.400
VELOX 1 02 Mar 21:02:12 21:05:04 17° 67° (ENE) 21:08:04 145.980
SEEDS 02 Mar 21:02:20 21:06:02 29° 264° (W) 21:09:42 437.485
GOMX 1 02 Mar 21:02:54 21:07:39 30° 265° (W) 21:12:11 467.674
CANX-2 02 Mar 21:06:06 21:09:23 21° 267° (W) 21:12:34 2200.000
FUNcube-1 02 Mar 21:08:31 21:12:44 49° 74° (ENE) 21:16:54 145.935
ZACube-1 02 Mar 21:09:43 21:13:59 51° 74° (ENE) 21:18:10 437.345
50 SAT 02 Mar 21:11:45 21:14:26 18° 69° (ENE) 21:17:13 437.505
GONETS M04 02 Mar 21:13:07 21:21:03 44° 89° (E) 21:29:09
HUMSAT D 02 Mar 21:13:42 21:17:17 28° 71° (ENE) 21:20:54 437.325/437.525
UKube-1 02 Mar 21:17:30 21:21:46 60° 74° (ENE) 21:26:05 .
ESTCUBE 1 02 Mar 21:18:53 21:20:40 12° 64° (ENE) 21:22:40 437.505/2401.250
CUTE 1.7 + AOD 2 02 Mar 21:25:44 21:28:10 14° 270° (W) 21:30:24 437.475
UWE-3 02 Mar 21:28:41 21:33:10 78° 258° (WSW) 21:37:31 435.000/436.395/437.385
DOVE 4 02 Mar 21:39:07 21:42:45 18° 268° (W) 21:46:06 437.250
DELFI C3 02 Mar 21:40:01 21:43:49 40° 262° (W) 21:47:38 145.870
RS-15 02 Mar 21:44:22 21:52:26 26° 105° (ESE) 22:01:01 29.354- 29.394
CINEMA 3 02 Mar 21:46:31 21:50:30 25° 266° (W) 21:54:16 145.822/145.860
TIGRISAT 02 Mar 21:55:13 21:58:11 19° 93° (E) 22:01:18 435.000
Oscar 11 02 Mar 22:01:04 22:04:20 20° 267° (W) 22:07:30 145.826/435.025
CUBEBUG 2 02 Mar 22:07:11 22:10:56 25° 265° (W) 22:14:32 437.445
ANTELSAT 02 Mar 22:08:17 22:11:56 27° 95° (E) 22:15:41 437.575/2403.000
DUCHIFAT 1 02 Mar 22:09:21 22:11:31 14° 91° (E) 22:13:52 145.980
DX 1 02 Mar 22:25:01 22:28:32 23° 266° (W) 22:31:59 434.975-435.025
AISAT 02 Mar 22:27:24 22:31:49 54° 260° (W) 22:36:14 437.250
POLYITAN 1 02 Mar 22:28:35 22:32:03 25° 95° (E) 22:35:33 437.675
POPSAT HIP 1 02 Mar 22:29:06 22:32:32 24° 95° (E) 22:36:02 437.405
VERMONT LUNAR 02 Mar 22:29:42 22:32:55 35° 206° (SSW) 22:36:05 437.305
CUBEBUG 1 02 Mar 22:30:41 22:35:05 66° 76° (ENE) 22:39:31 437.445
PHONESAT 2.4 02 Mar 22:33:27 22:37:02 61° 200° (SSW) 22:40:37 2401.200-2431.200
VELOX 1 02 Mar 22:37:04 22:41:21 43° 261° (W) 22:45:38 145.980
PCSat 02 Mar 22:39:11 22:41:48 13° 320° (NW) 22:44:11 145.827
50 SAT 02 Mar 22:45:40 22:49:15 31° 263° (W) 22:52:48 437.505
FUNcube-1 02 Mar 22:47:08 22:49:24 13° 270° (W) 22:51:26 145.935
ZACube-1 02 Mar 22:48:36 22:50:42 13° 270° (W) 22:52:33 437.345
HUMSAT D 02 Mar 22:49:48 22:53:06 21° 266° (W) 22:56:17 437.325/437.525
CUSAT 1 02 Mar 22:50:34 22:54:57 21° 95° (E) 22:58:50 437.405
NANOSAT C BR1 02 Mar 22:51:49 22:55:52 45° 99° (E) 22:59:55 145.865
ESTCUBE 1 02 Mar 22:52:35 22:57:04 64° 260° (W) 23:01:36 437.505/2401.250
UKube-1 02 Mar 22:57:03 22:58:24 11° 271° (W) 22:59:29 .
SPROUT 02 Mar 23:03:06 23:07:03 36° 72° (ENE) 23:11:03 437.525
UNISAT 6 02 Mar 23:05:49 23:10:04 65° 285° (WNW) 23:14:22 437.425
TISAT 1 02 Mar 23:06:48 23:10:42 36° 72° (ENE) 23:14:38 437.305
GONETS M04 02 Mar 23:10:00 23:18:01 39° 288° (WNW) 23:25:56
QB50P1 02 Mar 23:24:34 23:28:48 72° 285° (WNW) 23:33:00 145.935-145.965
QB50P2 02 Mar 23:28:29 23:32:41 63° 285° (WNW) 23:36:50 145.880/145.840
TIGRISAT 02 Mar 23:31:11 23:35:04 34° 288° (WNW) 23:38:58 435.000
BUGSAT 1 02 Mar 23:34:34 23:38:44 75° 285° (WNW) 23:42:48 437.445
DUCHIFAT 1 02 Mar 23:43:38 23:47:40 43° 287° (WNW) 23:51:38 145.980
ANTELSAT 02 Mar 23:45:11 23:48:41 24° 290° (WNW) 23:52:08 437.575/2403.000
RS-15 02 Mar 23:52:53 00:03:48 77° 304° (WNW) 00:14:53 29.354- 29.394
DANDE 03 Mar 00:01:36 00:08:42 76° 99° (E) 00:14:01 436.750
POLYITAN 1 03 Mar 00:04:25 00:07:56 25° 290° (WNW) 00:11:22 437.675
POPSAT HIP 1 03 Mar 00:04:52 00:08:24 25° 290° (WNW) 00:11:50 437.405
CUBEBUG 1 03 Mar 00:11:10 00:12:00 10° 272° (W) 00:12:32 437.445
PHONESAT 2.4 03 Mar 00:12:56 00:15:06 15° 214° (SW) 00:17:09 2401.200-2431.200
SWISSCUBE 03 Mar 00:23:13 00:27:41 42° 71° (ENE) 00:32:13 437.505
NANOSAT C BR1 03 Mar 00:28:58 00:31:24 15° 294° (WNW) 00:33:41 145.865
CUSAT 1 03 Mar 00:31:35 00:37:49 48° 281° (W) 00:42:32 437.405
BEESAT 03 Mar 00:31:43 00:36:16 47° 73° (ENE) 00:40:53 436.000
SPROUT 03 Mar 00:40:11 00:43:18 18° 268° (W) 00:46:16 437.525
TISAT 1 03 Mar 00:43:38 00:46:39 18° 268° (W) 00:49:33 437.305
KKS-1 03 Mar 00:43:51 00:45:15 12° 64° (ENE) 00:46:52 437.445
BEESAT 2 03 Mar 00:55:23 00:57:24 13° 42° (NE) 00:59:33 435.950
SO-50 03 Mar 00:56:24 01:00:28 33° 114° (ESE) 01:04:44 436.795
ITUPSAT 1 03 Mar 00:58:56 01:03:44 89° 71° (ENE) 01:08:33 437.325
YUBILEINY 03 Mar 01:18:19 01:21:39 13° 57° (ENE) 01:25:39 435.215
Gurwin Techsat 1B 03 Mar 01:23:25 01:25:19 12° 88° (E) 01:27:33 435.225
ITAMSAT 1 03 Mar 01:48:05 01:52:34 29° 95° (E) 01:57:06 435.822/435.867
DANDE 03 Mar 01:48:38 01:52:13 15° 289° (WNW) 01:55:03 436.750
Oscar 19 03 Mar 01:48:52 01:54:01 88° 278° (W) 01:59:09 437.125/150
SWISSCUBE 03 Mar 02:02:21 02:05:47 19° 268° (W) 02:09:05 437.505
BEESAT 3 03 Mar 02:06:09 02:10:17 71° 58° (ENE) 02:14:21 437.485
RS-15 03 Mar 02:09:38 02:18:27 26° 331° (NNW) 02:27:13 29.354- 29.394
BEESAT 03 Mar 02:11:19 02:14:27 17° 269° (W) 02:17:24 436.000
KKS-1 03 Mar 02:16:56 02:21:24 68° 258° (WSW) 02:25:52 437.445
STARS 03 Mar 02:22:46 02:27:12 89° 74° (ENE) 02:31:39 437.465
AIST 2 03 Mar 02:30:39 02:34:43 41° 53° (NE) 02:38:43 435.215
BEESAT 2 03 Mar 02:31:58 02:36:07 70° 241° (WSW) 02:40:11 435.950
SO-50 03 Mar 02:37:03 02:41:04 28° 312° (NW) 02:45:09 436.795
HORYU 2 03 Mar 02:37:41 02:40:14 15° 91° (E) 02:42:57 437.375
JUGNU 03 Mar 02:40:37 02:41:46 11° 174° (S) 02:42:57 437.505
M-CUBED/EXP-1 PRIME 03 Mar 02:58:36 03:01:22 25° 66° (ENE) 03:04:16 437.505
AUBIESAT-1 03 Mar 03:00:26 03:03:07 24° 65° (ENE) 03:05:56 437.475
Gurwin Techsat 1B 03 Mar 03:00:39 03:05:59 76° 285° (WNW) 03:11:17 435.225
YUBILEINY 03 Mar 03:11:43 03:20:34 70° 80° (E) 03:29:22 435.215
JAS-2 03 Mar 03:19:14 03:24:45 22° 90° (E) 03:30:44 435.910
ITAMSAT 1 03 Mar 03:27:27 03:32:05 32° 291° (WNW) 03:36:37 435.822/435.867
AO-7 03 Mar 03:27:46 03:34:59 33° 96° (E) 03:42:20 29.400- 29.500
MOZHAYETS 4 03 Mar 03:30:37 03:34:39 32° 71° (ENE) 03:38:45
Oscar 19 03 Mar 03:31:33 03:32:42 10° 299° (WNW) 03:33:31 437.125/150
PCSat 03 Mar 04:00:24 04:01:55 11° 38° (NE) 04:03:40 145.827
AIST 2 03 Mar 04:10:08 04:13:02 17° 249° (WSW) 04:15:46 435.215
HORYU 2 03 Mar 04:12:56 04:17:12 45° 287° (WNW) 04:21:26 437.375
JUGNU 03 Mar 04:28:23 04:29:54 11° 184° (S) 04:31:22 437.505
RS-15 03 Mar 04:29:34 04:36:21 17° 6° (N) 04:43:24 29.354- 29.394
SRMSAT 03 Mar 04:30:40 04:32:18 11° 176° (S) 04:33:58 437.500
PRISM 03 Mar 04:33:01 04:33:48 11° 64° (ENE) 04:34:50 437.425
M-CUBED/EXP-1 PRIME 03 Mar 04:34:29 04:36:28 15° 263° (W) 04:38:21 437.505
AUBIESAT-1 03 Mar 04:35:56 04:38:06 16° 262° (W) 04:40:12 437.475
JAS-2 03 Mar 05:02:53 05:10:21 73° 286° (WNW) 05:18:10 435.910
MOZHAYETS 4 03 Mar 05:08:22 05:11:58 22° 267° (W) 05:15:30
YUBILEINY 03 Mar 05:10:00 05:16:40 23° 277° (W) 05:22:56 435.215
Cubesat XI-IV 03 Mar 05:18:26 05:21:35 16° 90° (E) 05:24:58 437.490
AO-7 03 Mar 05:20:07 05:28:06 53° 294° (WNW) 05:35:59 29.400- 29.500
CUTE-I 03 Mar 05:26:53 05:30:35 19° 91° (E) 05:34:28 437.470
CUBESAT XI-V 03 Mar 05:30:05 05:34:32 46° 73° (ENE) 05:39:04 437.345
PCSat 03 Mar 05:41:07 05:46:32 65° 59° (ENE) 05:51:54 145.827
STRAND 1 03 Mar 05:44:48 05:49:37 43° 71° (ENE) 05:54:30 437.568
AIST 1 03 Mar 05:58:11 05:59:56 13° 86° (E) 06:01:57
PRISM 03 Mar 06:04:42 06:08:48 64° 258° (WSW) 06:12:59 437.425
SRMSAT 03 Mar 06:19:19 06:20:35 11° 186° (S) 06:21:49 437.500
RS-15 03 Mar 06:43:22 06:53:30 36° 39° (NE) 07:04:13 29.354- 29.394
JAS-2 03 Mar 06:50:28 06:54:27 15° 301° (WNW) 06:58:03 435.910
Cubesat XI-IV 03 Mar 06:56:53 07:02:11 59° 287° (WNW) 07:07:26 437.490
